| time (UTC) | temp F | wind direction | speed MPH | gust MPH | rain 1hr in | rain 24hr in | rain mn in | humidity % | barometer mb |
| 20260504023621 | 0 | 330 | 2.0 | 2.0 | 0.00 | 0.00 | 0.00 | 1008.5 | |
| 20260504023117 | 0 | 244 | 1.0 | 1.0 | 0.00 | 0.00 | 0.00 | 1008.5 | |
| 20260504022613 | 0 | 243 | 1.0 | 1.0 | 0.00 | 0.00 | 0.00 | 1008.5 | |
| 20260504022109 | 0 | 243 | 0.0 | 1.0 | 0.00 | 0.00 | 0.00 | 1008.5 | |
| 20260504021608 | 0 | 244 | 1.0 | 1.0 | 0.00 | 0.00 | 0.00 | 1008.1 | |
| 20260504021104 | 0 | 240 | 1.0 | 2.0 | 0.00 | 0.00 | 0.00 | 1008.1 | |
| 20260504020601 | 0 | 236 | 0.0 | 1.0 | 0.00 | 0.00 | 0.00 | 1008.2 | |
| 20260504020057 | 0 | 237 | 0.0 | 0.0 | 0.00 | 0.00 | 0.00 | 1008.4 | |
| 20260504015554 | 0 | 237 | 0.0 | 1.0 | 0.00 | 0.00 | 0.00 | 1008.2 | |
| 20260504015049 | 0 | 237 | 0.0 | 0.0 | 0.00 | 0.00 | 0.00 | 1008.1 | |
| 20260504014546 | 0 | 237 | 0.0 | 1.0 | 0.00 | 0.00 | 0.00 | 1008.1 | |
| 20260504014043 | 0 | 237 | 0.0 | 1.0 | 0.00 | 0.00 | 0.00 | 1008.0 | |
| 20260504013541 | 0 | 238 | 1.0 | 1.0 | 0.00 | 0.00 | 0.00 | 1008.2 | |
| 20260504013038 | 0 | 236 | 1.0 | 1.0 | 0.00 | 0.00 | 0.00 | 1008.1 | |
| 20260504012535 | 0 | 236 | 0.0 | 1.0 | 0.00 | 0.00 | 0.00 | 1008.0 | |
| 20260504012033 | 0 | 262 | 1.0 | 2.0 | 0.00 | 0.00 | 0.00 | 1008.0 | |
| 20260504011529 | 0 | 248 | 1.0 | 2.0 | 0.00 | 0.00 | 0.00 | 1008.0 | |
| 20260504011025 | 0 | 234 | 0.0 | 0.0 | 0.00 | 0.00 | 0.00 | 1007.9 | |
| 20260504010521 | 0 | 234 | 0.0 | 0.0 | 0.00 | 0.00 | 0.00 | 1008.0 | |
| 20260504010017 | 0 | 236 | 0.0 | 1.0 | 0.00 | 0.00 | 0.00 | 1007.9 | |
| 20260504005514 | 0 | 317 | 2.0 | 2.0 | 0.00 | 0.00 | 0.00 | 1007.8 | |
| 20260504005012 | 0 | 268 | 1.0 | 2.0 | 0.00 | 0.00 | 0.00 | 1007.8 | |
| 20260504004509 | 0 | 222 | 0.0 | 1.0 | 0.00 | 0.00 | 0.00 | 1007.8 | |
| 20260504004006 | 0 | 211 | 0.0 | 1.0 | 0.00 | 0.00 | 0.00 | 1008.1 | |
| 20260504003502 | 0 | 214 | 2.0 | 2.0 | 0.00 | 0.00 | 0.00 | 1007.7 | |
| 20260504002959 | 0 | 238 | 2.0 | 3.0 | 0.00 | 0.00 | 0.00 | 1007.7 | |
| 20260504002456 | 0 | 235 | 4.0 | 5.0 | 0.00 | 0.00 | 0.00 | 1007.8 | |
| 20260504001953 | 0 | 240 | 3.0 | 6.0 | 0.00 | 0.00 | 0.00 | 1007.7 | |
| 20260504001451 | 0 | 231 | 1.0 | 2.0 | 0.00 | 0.00 | 0.00 | 1007.6 | |
| 20260504000947 | 0 | 284 | 3.0 | 5.0 | 0.00 | 0.00 | 0.00 | 1007.7 | |
| 20260504000444 | 0 | 248 | 2.0 | 3.0 | 0.00 | 0.00 | 0.00 | 1007.7 | |
| 20260503235942 | 0 | 272 | 6.0 | 8.0 | 0.00 | 0.00 | 0.00 | 1007.8 | |
| 20260503235439 | 0 | 277 | 5.0 | 6.0 | 0.00 | 0.00 | 0.00 | 1007.5 | |
| 20260503234936 | 0 | 273 | 5.0 | 9.0 | 0.00 | 0.00 | 0.00 | 1007.5 | |
| 20260503234434 | 0 | 280 | 7.0 | 11.0 | 0.00 | 0.00 | 0.00 | 1007.5 | |
| 20260503233932 | 0 | 293 | 3.0 | 7.0 | 0.00 | 0.00 | 0.00 | 1007.7 | |
| 20260503233428 | 0 | 258 | 4.0 | 13.0 | 0.00 | 0.00 | 0.00 | 1007.6 | |
| 20260503232925 | 0 | 262 | 8.0 | 9.0 | 0.00 | 0.00 | 0.00 | 1007.6 | |
| 20260503232422 | 0 | 257 | 6.0 | 9.0 | 0.00 | 0.00 | 0.00 | 1007.7 | |
| 20260503231920 | 0 | 289 | 6.0 | 10.0 | 0.00 | 0.00 | 0.00 | 1008.0 | |
| 20260503231417 | 0 | 281 | 9.0 | 10.0 | 0.00 | 0.00 | 0.00 | 1007.7 | |
| 20260503230913 | 0 | 270 | 5.0 | 8.0 | 0.00 | 0.00 | 0.00 | 1007.8 | |
| 20260503230409 | 0 | 240 | 5.0 | 10.0 | 0.00 | 0.00 | 0.00 | 1007.9 | |
| 20260503225908 | 0 | 241 | 11.0 | 14.0 | 0.00 | 0.00 | 0.00 | 1007.9 | |
| 20260503225403 | 0 | 227 | 8.0 | 13.0 | 0.00 | 0.00 | 0.00 | 1008.0 | |
| 20260503224859 | 0 | 279 | 6.0 | 9.0 | 0.00 | 0.00 | 0.00 | 1007.8 | |
| 20260503224357 | 0 | 246 | 5.0 | 10.0 | 0.00 | 0.00 | 0.00 | 1007.8 | |
| 20260503223854 | 0 | 235 | 7.0 | 10.0 | 0.00 | 0.00 | 0.00 | 1007.8 | |
| 20260503223352 | 0 | 229 | 5.0 | 9.0 | 0.00 | 0.00 | 0.00 | 1007.9 | |
| 20260503222847 | 0 | 239 | 7.0 | 13.0 | 0.00 | 0.00 | 0.00 | 1008.2 | |
| 20260503222346 | 0 | 244 | 9.0 | 13.0 | 0.00 | 0.00 | 0.00 | 1008.1 | |
| 20260503221844 | 0 | 245 | 9.0 | 11.0 | 0.00 | 0.00 | 0.00 | 1008.2 | |
| 20260503221342 | 0 | 233 | 7.0 | 13.0 | 0.00 | 0.00 | 0.00 | 1008.2 | |
| 20260503220838 | 0 | 239 | 6.0 | 13.0 | 0.00 | 0.00 | 0.00 | 1008.2 | |
| 20260503220335 | 0 | 231 | 11.0 | 14.0 | 0.00 | 0.00 | 0.00 | 1008.3 | |
| 20260503215832 | 0 | 248 | 10.0 | 14.0 | 0.00 | 0.00 | 0.00 | 1008.3 | |
| 20260503215329 | 0 | 307 | 8.0 | 13.0 | 0.00 | 0.00 | 0.00 | 1008.4 | |
| 20260503214827 | 0 | 258 | 11.0 | 20.0 | 0.00 | 0.00 | 0.00 | 1008.1 | |
| 20260503214324 | 0 | 258 | 5.0 | 11.0 | 0.00 | 0.00 | 0.00 | 1008.4 | |
| 20260503213821 | 0 | 228 | 6.0 | 13.0 | 0.00 | 0.00 | 0.00 | 1008.4 | |
| 20260503213319 | 0 | 239 | 9.0 | 11.0 | 0.00 | 0.00 | 0.00 | 1008.4 | |
| 20260503212815 | 0 | 239 | 11.0 | 17.0 | 0.00 | 0.00 | 0.00 | 1008.5 | |
| 20260503212313 | 0 | 265 | 9.0 | 14.0 | 0.00 | 0.00 | 0.00 | 1008.2 | |
| 20260503211810 | 0 | 231 | 15.0 | 17.0 | 0.00 | 0.00 | 0.00 | 1008.4 | |
| 20260503211307 | 0 | 261 | 11.0 | 16.0 | 0.00 | 0.00 | 0.00 | 1008.7 | |
| 20260503210807 | 0 | 245 | 13.0 | 17.0 | 0.00 | 0.00 | 0.00 | 1008.5 | |
| 20260503210305 | 0 | 241 | 6.0 | 11.0 | 0.00 | 0.00 | 0.00 | 1008.7 | |
| 20260503205800 | 0 | 222 | 10.0 | 16.0 | 0.00 | 0.00 | 0.00 | 1008.8 | |
| 20260503205256 | 0 | 296 | 6.0 | 10.0 | 0.00 | 0.00 | 0.00 | 1008.8 | |
| 20260503204753 | 0 | 230 | 8.0 | 13.0 | 0.00 | 0.00 | 0.00 | 1008.7 | |
| 20260503204251 | 0 | 262 | 12.0 | 16.0 | 0.00 | 0.00 | 0.00 | 1008.9 | |
| 20260503203748 | 0 | 249 | 11.0 | 14.0 | 0.00 | 0.00 | 0.00 | 1009.0 | |
| 20260503203245 | 0 | 241 | 5.0 | 11.0 | 0.00 | 0.00 | 0.00 | 1009.1 | |
| 20260503202742 | 0 | 239 | 10.0 | 16.0 | 0.00 | 0.00 | 0.00 | 1009.1 | |
| 20260503202240 | 0 | 241 | 10.0 | 16.0 | 0.00 | 0.00 | 0.00 | 1009.1 | |
| 20260503201738 | 0 | 208 | 11.0 | 16.0 | 0.00 | 0.00 | 0.00 | 1009.3 | |
| 20260503201235 | 0 | 168 | 13.0 | 20.0 | 0.00 | 0.00 | 0.00 | 1009.2 | |
| 20260503200731 | 0 | 224 | 13.0 | 18.0 | 0.00 | 0.00 | 0.00 | 1009.3 | |
| 20260503200228 | 0 | 237 | 10.0 | 11.0 | 0.00 | 0.00 | 0.00 | 1009.4 | |
| 20260503195724 | 0 | 225 | 14.0 | 16.0 | 0.00 | 0.00 | 0.00 | 1009.5 | |
| 20260503195221 | 0 | 203 | 14.0 | 18.0 | 0.00 | 0.00 | 0.00 | 1009.4 | |
| 20260503194719 | 0 | 243 | 11.0 | 18.0 | 0.00 | 0.00 | 0.00 | 1009.7 | |
| 20260503194215 | 0 | 233 | 7.0 | 11.0 | 0.00 | 0.00 | 0.00 | 1009.8 | |
| 20260503193711 | 0 | 216 | 11.0 | 18.0 | 0.00 | 0.00 | 0.00 | 1009.9 | |
| 20260503193207 | 0 | 231 | 10.0 | 21.0 | 0.00 | 0.00 | 0.00 | 1010.2 | |
| 20260503192703 | 0 | 194 | 11.0 | 18.0 | 0.00 | 0.00 | 0.00 | 1010.0 | |
| 20260503192158 | 0 | 250 | 10.0 | 18.0 | 0.00 | 0.00 | 0.00 | 1009.9 | |
| 20260503191655 | 0 | 229 | 12.0 | 22.0 | 0.00 | 0.00 | 0.00 | 1010.3 | |
| 20260503191152 | 0 | 223 | 16.0 | 21.0 | 0.00 | 0.00 | 0.00 | 1010.1 | |
| 20260503190649 | 0 | 255 | 13.0 | 20.0 | 0.00 | 0.00 | 0.00 | 1010.2 | |
| 20260503190146 | 0 | 244 | 6.0 | 10.0 | 0.00 | 0.00 | 0.00 | 1010.3 | |
| 20260503185643 | 0 | 236 | 16.0 | 23.0 | 0.00 | 0.00 | 0.00 | 1010.4 | |
| 20260503185138 | 0 | 194 | 9.0 | 22.0 | 0.00 | 0.00 | 0.00 | 1010.3 | |
| 20260503184633 | 0 | 217 | 13.0 | 20.0 | 0.00 | 0.00 | 0.00 | 1010.3 | |
| 20260503184130 | 0 | 226 | 15.0 | 22.0 | 0.00 | 0.00 | 0.00 | 1010.5 | |
| 20260503183626 | 0 | 209 | 16.0 | 20.0 | 0.00 | 0.00 | 0.00 | 1010.5 | |
| 20260503183124 | 0 | 216 | 10.0 | 18.0 | 0.00 | 0.00 | 0.00 | 1010.6 | |
| 20260503182622 | 0 | 239 | 15.0 | 25.0 | 0.00 | 0.00 | 0.00 | 1010.6 | |
| 20260503182120 | 0 | 224 | 14.0 | 24.0 | 0.00 | 0.00 | 0.00 | 1010.7 | |
| 20260503181616 | 0 | 223 | 15.0 | 27.0 | 0.00 | 0.00 | 0.00 | 1010.6 | |
| 20260503181113 | 0 | 227 | 15.0 | 21.0 | 0.00 | 0.00 | 0.00 | 1010.8 | |
| 20260503180610 | 0 | 240 | 14.0 | 18.0 | 0.00 | 0.00 | 0.00 | 1010.8 | |
| 20260503180108 | 0 | 196 | 15.0 | 18.0 | 0.00 | 0.00 | 0.00 | 1010.7 | |
| 20260503175605 | 0 | 251 | 13.0 | 20.0 | 0.00 | 0.00 | 0.00 | 1011.1 | |
| 20260503175102 | 0 | 199 | 16.0 | 25.0 | 0.00 | 0.00 | 0.00 | 1010.8 | |
| 20260503174559 | 0 | 238 | 12.0 | 17.0 | 0.00 | 0.00 | 0.00 | 1011.2 | |
| 20260503174055 | 0 | 252 | 16.0 | 21.0 | 0.00 | 0.00 | 0.00 | 1011.0 | |
| 20260503173550 | 0 | 254 | 11.0 | 18.0 | 0.00 | 0.00 | 0.00 | 1011.3 | |
| 20260503173047 | 0 | 264 | 17.0 | 21.0 | 0.00 | 0.00 | 0.00 | 1011.5 | |
| 20260503172544 | 0 | 228 | 18.0 | 21.0 | 0.00 | 0.00 | 0.00 | 1011.5 | |
| 20260503172042 | 0 | 208 | 13.0 | 23.0 | 0.00 | 0.00 | 0.00 | 1011.5 | |
| 20260503171538 | 0 | 223 | 17.0 | 23.0 | 0.00 | 0.00 | 0.00 | 1011.9 | |
| 20260503171035 | 0 | 200 | 10.0 | 16.0 | 0.00 | 0.00 | 0.00 | 1011.7 | |
| 20260503170531 | 0 | 252 | 13.0 | 22.0 | 0.00 | 0.00 | 0.00 | 1011.7 | |
| 20260503150919 | 0 | 161 | 10.0 | 18.0 | 0.00 | 0.00 | 0.00 | 1013.0 | |
| 20260503150415 | 0 | 206 | 10.0 | 14.0 | 0.00 | 0.00 | 0.00 | 1013.3 | |
| 20260503131308 | 0 | 228 | 12.0 | 25.0 | 0.00 | 0.00 | 0.00 | 1015.2 | |
| 20260503130806 | 0 | 254 | 10.0 | 14.0 | 0.00 | 0.00 | 0.00 | 1015.2 | |
| 20260503130303 | 0 | 247 | 9.0 | 15.0 | 0.00 | 0.00 | 0.00 | 1015.1 | |
| 20260503110656 | 0 | 222 | 7.0 | 13.0 | 0.00 | 0.00 | 0.00 | 1014.9 | |
| 20260503110153 | 0 | 248 | 6.0 | 13.0 | 0.00 | 0.00 | 0.00 | 1015.0 | |
| 20260503100120 | 0 | 191 | 5.0 | 8.0 | 0.00 | 0.00 | 0.00 | 1015.5 | |
| 20260503081510 | 0 | 203 | 1.0 | 2.0 | 0.00 | 0.00 | 0.00 | 1016.2 | |
| 20260503081007 | 0 | 195 | 3.0 | 3.0 | 0.00 | 0.00 | 0.00 | 1016.2 | |
| 20260503080503 | 0 | 187 | 2.0 | 3.0 | 0.00 | 0.00 | 0.00 | 1016.2 | |
| 20260503072939 | 0 | 188 | 1.0 | 2.0 | 0.00 | 0.00 | 0.00 | 1016.5 | |
| 20260503072437 | 0 | 192 | 0.0 | 0.0 | 0.00 | 0.00 | 0.00 | 1016.6 | |
| 20260503071933 | 0 | 191 | 1.0 | 2.0 | 0.00 | 0.00 | 0.00 | 1016.4 | |
| 20260503071430 | 0 | 209 | 0.0 | 0.0 | 0.00 | 0.00 | 0.00 | 1016.4 | |
| 20260503070926 | 0 | 210 | 1.0 | 1.0 | 0.00 | 0.00 | 0.00 | 1016.8 | |
| 20260503070424 | 0 | 194 | 1.0 | 1.0 | 0.00 | 0.00 | 0.00 | 1016.8 | |
| 20260503054837 | 0 | 188 | 3.0 | 3.0 | 0.00 | 0.00 | 0.00 | 1017.2 | |
| 20260503054333 | 0 | 168 | 3.0 | 6.0 | 0.00 | 0.00 | 0.00 | 1017.1 | |
| 20260503053831 | 0 | 181 | 6.0 | 7.0 | 0.00 | 0.00 | 0.00 | 1017.3 | |
| 20260503053329 | 0 | 195 | 3.0 | 3.0 | 0.00 | 0.00 | 0.00 | 1017.3 | |
| 20260503052825 | 0 | 190 | 4.0 | 5.0 | 0.00 | 0.00 | 0.00 | 1017.4 | |
| 20260503052322 | 0 | 198 | 3.0 | 6.0 | 0.00 | 0.00 | 0.00 | 1017.3 | |
| 20260503051818 | 0 | 195 | 3.0 | 6.0 | 0.00 | 0.00 | 0.00 | 1017.5 | |
| 20260503051315 | 0 | 195 | 3.0 | 5.0 | 0.00 | 0.00 | 0.00 | 1017.6 | |
| 20260503050812 | 0 | 190 | 2.0 | 3.0 | 0.00 | 0.00 | 0.00 | 1017.3 | |
| 20260503050308 | 0 | 202 | 1.0 | 2.0 | 0.00 | 0.00 | 0.00 | 1017.5 | |
| 20260503045806 | 0 | 184 | 1.0 | 2.0 | 0.00 | 0.00 | 0.00 | 1017.8 | |
| 20260503045305 | 0 | 181 | 2.0 | 3.0 | 0.00 | 0.00 | 0.00 | 1017.5 | |
| 20260503044759 | 0 | 189 | 2.0 | 2.0 | 0.00 | 0.00 | 0.00 | 1017.5 | |
| 20260503044251 | 0 | 231 | 3.0 | 3.0 | 0.00 | 0.00 | 0.00 | 1017.5 | |
| 20260503043749 | 0 | 214 | 1.0 | 2.0 | 0.00 | 0.00 | 0.00 | 1017.6 | |
| 20260503043246 | 0 | 197 | 0.0 | 1.0 | 0.00 | 0.00 | 0.00 | 1017.6 | |
| 20260503042741 | 0 | 208 | 2.0 | 3.0 | 0.00 | 0.00 | 0.00 | 1017.4 | |
| 20260503042238 | 0 | 210 | 2.0 | 2.0 | 0.00 | 0.00 | 0.00 | 1017.5 | |
| 20260503041734 | 0 | 215 | 1.0 | 3.0 | 0.00 | 0.00 | 0.00 | 1017.8 | |
| 20260503041232 | 0 | 218 | 4.0 | 5.0 | 0.00 | 0.00 | 0.00 | 1017.8 | |
| 20260503040729 | 0 | 188 | 2.0 | 2.0 | 0.00 | 0.00 | 0.00 | 1018.0 | |
| 20260503040227 | 0 | 209 | 1.0 | 2.0 | 0.00 | 0.00 | 0.00 | 1017.9 | |
| 20260503035723 | 0 | 219 | 2.0 | 2.0 | 0.00 | 0.00 | 0.00 | 1017.8 | |
| 20260503035221 | 0 | 215 | 1.0 | 2.0 | 0.00 | 0.00 | 0.00 | 1018.1 | |
| 20260503034718 | 0 | 209 | 1.0 | 3.0 | 0.00 | 0.00 | 0.00 | 1018.2 | |
| 20260503034215 | 0 | 207 | 1.0 | 3.0 | 0.00 | 0.00 | 0.00 | 1018.0 | |
| 20260503033712 | 0 | 205 | 3.0 | 3.0 | 0.00 | 0.00 | 0.00 | 1018.0 | |
| 20260503033210 | 0 | 206 | 1.0 | 2.0 | 0.00 | 0.00 | 0.00 | 1018.0 | |
| 20260503032708 | 0 | 198 | 2.0 | 3.0 | 0.00 | 0.00 | 0.00 | 1017.9 | |
| 20260503032206 | 0 | 217 | 3.0 | 3.0 | 0.00 | 0.00 | 0.00 | 1017.9 | |
| 20260503031703 | 0 | 204 | 2.0 | 3.0 | 0.00 | 0.00 | 0.00 | 1018.2 | |
| 20260503031201 | 0 | 194 | 1.0 | 2.0 | 0.00 | 0.00 | 0.00 | 1018.2 | |
| 20260503030656 | 0 | 215 | 2.0 | 3.0 | 0.00 | 0.00 | 0.00 | 1018.3 | |
| 20260503030153 | 0 | 202 | 2.0 | 2.0 | 0.00 | 0.00 | 0.00 | 1018.3 | |
| 20260503025650 | 0 | 197 | 2.0 | 2.0 | 0.00 | 0.00 | 0.00 | 1018.4 | |
| 20260503025148 | 0 | 190 | 1.0 | 1.0 | 0.00 | 0.00 | 0.00 | 1018.3 | |
| 20260503024644 | 0 | 201 | 1.0 | 2.0 | 0.00 | 0.00 | 0.00 | 1018.2 | |
| 20260503024142 | 0 | 196 | 1.0 | 1.0 | 0.00 | 0.00 | 0.00 | 1018.3 |